Location: Gleizolles
(44.4833°N, 6.7667°E)
Time: 09:14:39
(UTC+00:00)

Cosmos 1703 - Pass Details

Date: 09 April 2020
Orbit: 523 x 541 km, 82.5° (Epoch: 04 June)

Event Time Altitude Azimuth Distance (km) Brightness Sun altitude
Rises 18:59:08 0° 352° (N) 2,707 7.3 -9.1°
Reaches altitude 10° 19:01:18 10° 353° (N) 1,812 6.3 -9.5°
Maximum altitude 19:05:17 82° 80° (E) 553 3.2 -10.1°
Drops below altitude 10° 19:09:15 10° 170° (S) 1,800 5.6 -10.8°
Sets 19:11:24 0° 171° (S) 2,687 6.5 -11.1°
